| time (UTC) | temp F | wind direction | speed knots | gust knots | rain 1hr in | rain 24hr in | rain mn in | humidity % | barometer mb |
| 20260831064027 | 71 | 221 | 0.0 | 0.0 | 0.00 | 0.00 | 0.00 | 91 | 1018.2 |
| 20260831063529 | 71 | 221 | 0.0 | 0.0 | 0.00 | 0.00 | 0.00 | 91 | 1018.2 |
| 20260831063025 | 72 | 221 | 0.0 | 0.0 | 0.00 | 0.00 | 0.00 | 91 | 1018.3 |
| 20260831062524 | 72 | 221 | 0.0 | 0.0 | 0.00 | 0.00 | 0.00 | 91 | 1018.3 |
| 20260831062247 | 72 | 221 | 0.0 | 0.0 | 0.00 | 0.00 | 0.00 | 90 | 1018.3 |
| 20260831061524 | 72 | 221 | 0.0 | 0.0 | 0.00 | 0.00 | 0.00 | 90 | 1018.3 |
| 20260831061025 | 72 | 221 | 0.0 | 0.0 | 0.00 | 0.00 | 0.00 | 90 | 1018.4 |
| 20260831060525 | 72 | 221 | 0.0 | 0.0 | 0.00 | 0.00 | 0.00 | 90 | 1018.5 |
| 20260831060023 | 72 | 221 | 0.0 | 0.0 | 0.00 | 0.00 | 0.00 | 90 | 1018.5 |
| 20260831055754 | 72 | 221 | 0.0 | 0.0 | 0.00 | 0.00 | 0.00 | 90 | 1018.5 |
| 20260831055025 | 72 | 221 | 0.0 | 0.0 | 0.00 | 0.00 | 0.00 | 90 | 1018.6 |
| 20260831055010 | 72 | 221 | 0.0 | 0.0 | 0.00 | 0.00 | 0.00 | 90 | 1018.7 |
| 20260831054020 | 72 | 221 | 0.0 | 0.0 | 0.00 | 0.00 | 0.00 | 89 | 1018.7 |
| 20260831053522 | 72 | 221 | 0.0 | 0.9 | 0.00 | 0.00 | 0.00 | 89 | 1018.7 |
| 20260831053021 | 72 | 221 | 0.0 | 0.9 | 0.00 | 0.00 | 0.00 | 89 | 1018.7 |
| 20260831052520 | 73 | 221 | 0.0 | 0.0 | 0.00 | 0.00 | 0.00 | 89 | 1018.8 |
| 20260831052021 | 73 | 221 | 0.0 | 0.0 | 0.00 | 0.00 | 0.00 | 89 | 1018.7 |
| 20260831051523 | 73 | 221 | 0.0 | 0.0 | 0.00 | 0.00 | 0.00 | 89 | 1018.8 |
| 20260831051021 | 73 | 221 | 0.0 | 0.0 | 0.00 | 0.00 | 0.00 | 89 | 1018.7 |
| 20260831050522 | 73 | 221 | 0.0 | 0.0 | 0.00 | 0.00 | 0.00 | 89 | 1018.8 |
| 20260831050020 | 73 | 221 | 0.0 | 0.0 | 0.00 | 0.00 | 0.00 | 89 | 1018.8 |
| 20260831045526 | 73 | 221 | 0.0 | 0.0 | 0.00 | 0.00 | 0.00 | 89 | 1018.8 |
| 20260831045020 | 73 | 221 | 0.0 | 0.0 | 0.00 | 0.00 | 0.00 | 89 | 1018.9 |
| 20260831044522 | 73 | 221 | 0.0 | 0.0 | 0.00 | 0.00 | 0.00 | 88 | 1018.9 |
| 20260831044237 | 73 | 221 | 0.0 | 0.0 | 0.00 | 0.00 | 0.00 | 89 | 1019.0 |
| 20260831043517 | 73 | 221 | 0.0 | 0.0 | 0.00 | 0.00 | 0.00 | 88 | 1019.0 |
| 20260831043232 | 73 | 221 | 0.0 | 1.7 | 0.00 | 0.00 | 0.00 | 88 | 1018.9 |
| 20260831042730 | 74 | 221 | 0.0 | 1.7 | 0.00 | 0.00 | 0.00 | 88 | 1018.9 |
| 20260831042012 | 74 | 221 | 0.0 | 0.9 | 0.00 | 0.00 | 0.00 | 88 | 1018.9 |
| 20260831041510 | 74 | 221 | 0.0 | 0.9 | 0.00 | 0.00 | 0.00 | 88 | 1018.9 |
| 20260831041007 | 74 | 221 | 0.0 | 0.9 | 0.00 | 0.00 | 0.00 | 87 | 1019.0 |
| 20260831040505 | 74 | 221 | 0.0 | 0.0 | 0.00 | 0.00 | 0.00 | 88 | 1019.0 |
| 20260831035959 | 74 | 221 | 0.0 | 0.0 | 0.00 | 0.00 | 0.00 | 87 | 1018.9 |
| 20260831035500 | 74 | 221 | 0.0 | 0.0 | 0.00 | 0.00 | 0.00 | 87 | 1018.9 |
| 20260831035231 | 74 | 221 | 0.0 | 0.0 | 0.00 | 0.00 | 0.00 | 87 | 1018.9 |
| 20260831034500 | 74 | 221 | 0.0 | 0.0 | 0.00 | 0.00 | 0.00 | 87 | 1018.9 |
| 20260831034000 | 74 | 221 | 0.0 | 0.0 | 0.00 | 0.00 | 0.00 | 87 | 1018.9 |
| 20260831033723 | 74 | 221 | 0.0 | 0.0 | 0.00 | 0.00 | 0.00 | 87 | 1019.0 |
| 20260831033000 | 74 | 221 | 0.0 | 0.0 | 0.00 | 0.00 | 0.00 | 86 | 1019.0 |
| 20260831032500 | 74 | 221 | 0.0 | 0.0 | 0.00 | 0.00 | 0.00 | 86 | 1019.1 |
| 20260831032001 | 74 | 221 | 0.0 | 0.0 | 0.00 | 0.00 | 0.00 | 86 | 1019.1 |
| 20260831031459 | 75 | 221 | 0.0 | 0.0 | 0.00 | 0.00 | 0.00 | 86 | 1019.1 |
| 20260831031212 | 75 | 221 | 0.0 | 0.0 | 0.00 | 0.00 | 0.00 | 86 | 1019.3 |
| 20260831031054 | 75 | 221 | 0.0 | 0.0 | 0.00 | 0.00 | 0.00 | 86 | 1019.2 |
| 20260831030000 | 75 | 221 | 0.0 | 0.0 | 0.00 | 0.00 | 0.00 | 86 | 1019.2 |
| 20260831025500 | 75 | 221 | 0.0 | 0.0 | 0.00 | 0.00 | 0.00 | 86 | 1019.3 |
| 20260831025002 | 75 | 221 | 0.0 | 0.0 | 0.00 | 0.00 | 0.00 | 86 | 1019.5 |
| 20260831024459 | 75 | 221 | 0.0 | 0.0 | 0.00 | 0.00 | 0.00 | 86 | 1019.5 |
| 20260831024001 | 75 | 221 | 0.0 | 0.0 | 0.00 | 0.00 | 0.00 | 86 | 1019.5 |
| 20260831023500 | 75 | 221 | 0.0 | 0.0 | 0.00 | 0.00 | 0.00 | 85 | 1019.5 |
| 20260831023218 | 75 | 221 | 0.0 | 1.7 | 0.00 | 0.00 | 0.00 | 85 | 1019.6 |
| 20260831022503 | 75 | 221 | 0.0 | 1.7 | 0.00 | 0.00 | 0.00 | 85 | 1019.7 |
| 20260831021954 | 75 | 181 | 0.0 | 1.7 | 0.00 | 0.00 | 0.00 | 84 | 1019.8 |
| 20260831021449 | 76 | 350 | 0.0 | 0.0 | 0.00 | 0.00 | 0.00 | 84 | 1019.7 |
| 20260831020943 | 76 | 55 | 0.0 | 0.0 | 0.00 | 0.00 | 0.00 | 84 | 1019.6 |
| 20260831020437 | 76 | 55 | 0.0 | 0.0 | 0.00 | 0.00 | 0.00 | 84 | 1019.6 |
| 20260831015931 | 76 | 55 | 0.0 | 0.0 | 0.00 | 0.00 | 0.00 | 84 | 1019.6 |
| 20260831015431 | 76 | 55 | 0.0 | 0.0 | 0.00 | 0.00 | 0.00 | 84 | 1019.6 |
| 20260831014942 | 76 | 55 | 0.0 | 0.0 | 0.00 | 0.00 | 0.00 | 83 | 1019.6 |
| 20260831014429 | 76 | 55 | 0.0 | 0.0 | 0.00 | 0.00 | 0.00 | 83 | 1019.6 |
| 20260831014152 | 76 | 55 | 0.0 | 0.0 | 0.00 | 0.00 | 0.00 | 83 | 1019.5 |
| 20260831013427 | 76 | 55 | 0.0 | 0.0 | 0.00 | 0.00 | 0.00 | 83 | 1019.5 |
| 20260831013155 | 76 | 55 | 0.0 | 0.0 | 0.00 | 0.00 | 0.00 | 82 | 1019.6 |
| 20260831012426 | 76 | 55 | 0.0 | 0.0 | 0.00 | 0.00 | 0.00 | 82 | 1019.6 |
| 20260831011927 | 77 | 55 | 0.0 | 0.0 | 0.00 | 0.00 | 0.00 | 82 | 1019.7 |
| 20260831011425 | 77 | 55 | 0.0 | 0.0 | 0.00 | 0.00 | 0.00 | 81 | 1019.8 |
| 20260831010926 | 77 | 55 | 0.0 | 0.0 | 0.00 | 0.00 | 0.00 | 80 | 1019.7 |
| 20260831010653 | 77 | 55 | 0.0 | 0.0 | 0.00 | 0.00 | 0.00 | 80 | 1019.7 |
| 20260831010130 | 78 | 55 | 0.0 | 0.0 | 0.00 | 0.00 | 0.00 | 79 | 1019.5 |
| 20260831010019 | 77 | 55 | 0.0 | 0.0 | 0.00 | 0.00 | 0.00 | 80 | 1019.6 |
| 20260831004923 | 78 | 55 | 0.0 | 0.0 | 0.00 | 0.00 | 0.00 | 79 | 1019.3 |
| 20260831004422 | 78 | 55 | 0.0 | 0.0 | 0.00 | 0.00 | 0.00 | 79 | 1019.3 |
| 20260831003920 | 78 | 55 | 0.0 | 0.0 | 0.00 | 0.00 | 0.00 | 78 | 1019.2 |
| 20260831003420 | 78 | 55 | 0.0 | 0.0 | 0.00 | 0.00 | 0.00 | 78 | 1019.2 |
| 20260831002914 | 78 | 55 | 0.0 | 0.0 | 0.00 | 0.00 | 0.00 | 78 | 1019.2 |
| 20260831002637 | 79 | 55 | 0.0 | 0.0 | 0.00 | 0.00 | 0.00 | 78 | 1019.1 |
| 20260831001902 | 79 | 55 | 0.0 | 0.9 | 0.00 | 0.00 | 0.00 | 77 | 1019.1 |
| 20260831001618 | 79 | 55 | 0.0 | 0.9 | 0.00 | 0.00 | 0.00 | 77 | 1019.1 |
| 20260831000850 | 79 | 37 | 0.0 | 0.0 | 0.00 | 0.00 | 0.00 | 77 | 1019.2 |
| 20260831000611 | 79 | 37 | 0.0 | 1.7 | 0.00 | 0.00 | 0.00 | 76 | 1019.1 |
| 20260830235839 | 79 | 37 | 0.0 | 1.7 | 0.00 | 0.00 | 0.00 | 76 | 1019.0 |
| 20260830235333 | 79 | 312 | 0.0 | 0.9 | 0.00 | 0.00 | 0.00 | 75 | 1019.0 |
| 20260830234827 | 80 | 236 | 0.0 | 0.9 | 0.00 | 0.00 | 0.00 | 75 | 1019.0 |
| 20260830234322 | 80 | 236 | 0.0 | 1.7 | 0.00 | 0.00 | 0.00 | 75 | 1019.1 |
| 20260830233814 | 80 | 35 | 0.0 | 1.7 | 0.00 | 0.00 | 0.00 | 74 | 1019.1 |
| 20260830233309 | 80 | 331 | 0.0 | 1.7 | 0.00 | 0.00 | 0.00 | 73 | 1019.2 |
| 20260830232802 | 80 | 304 | 0.0 | 1.7 | 0.00 | 0.00 | 0.00 | 73 | 1019.2 |
| 20260830232256 | 81 | 315 | 0.0 | 1.7 | 0.00 | 0.00 | 0.00 | 72 | 1019.1 |
| 20260830231750 | 81 | 315 | 0.9 | 3.5 | 0.00 | 0.00 | 0.00 | 71 | 1019.0 |
| 20260830231244 | 81 | 265 | 0.9 | 4.3 | 0.00 | 0.00 | 0.00 | 70 | 1018.9 |
| 20260830230738 | 82 | 248 | 0.9 | 4.3 | 0.00 | 0.00 | 0.00 | 70 | 1018.8 |
| 20260830230459 | 82 | 125 | 0.0 | 2.6 | 0.00 | 0.00 | 0.00 | 71 | 1018.9 |
| 20260830225958 | 82 | 302 | 0.0 | 1.7 | 0.00 | 0.00 | 0.00 | 72 | 1018.8 |
| 20260830225221 | 83 | 242 | 0.9 | 2.6 | 0.00 | 0.00 | 0.00 | 72 | 1018.8 |
| 20260830224714 | 83 | 288 | 0.9 | 3.5 | 0.00 | 0.00 | 0.00 | 72 | 1018.9 |
| 20260830224434 | 83 | 271 | 0.9 | 3.5 | 0.00 | 0.00 | 0.00 | 72 | 1018.9 |
| 20260830223703 | 83 | 238 | 0.9 | 3.5 | 0.00 | 0.00 | 0.00 | 72 | 1018.9 |
| 20260830223156 | 84 | 178 | 0.0 | 3.5 | 0.00 | 0.00 | 0.00 | 73 | 1018.7 |
| 20260830222650 | 84 | 258 | 0.0 | 0.0 | 0.00 | 0.00 | 0.00 | 73 | 1018.7 |
| 20260830222144 | 84 | 258 | 0.0 | 0.0 | 0.00 | 0.00 | 0.00 | 73 | 1018.5 |
| 20260830221638 | 84 | 258 | 0.0 | 0.0 | 0.00 | 0.00 | 0.00 | 72 | 1018.5 |
| 20260830221132 | 84 | 258 | 0.0 | 0.0 | 0.00 | 0.00 | 0.00 | 72 | 1018.5 |
| 20260830220848 | 85 | 258 | 0.0 | 0.0 | 0.00 | 0.00 | 0.00 | 71 | 1018.5 |
| 20260830220121 | 85 | 258 | 0.0 | 0.0 | 0.00 | 0.00 | 0.00 | 71 | 1018.4 |
| 20260830215613 | 85 | 258 | 0.0 | 0.0 | 0.00 | 0.00 | 0.00 | 70 | 1018.4 |
| 20260830215108 | 85 | 258 | 0.0 | 0.0 | 0.00 | 0.00 | 0.00 | 70 | 1018.5 |
| 20260830214601 | 86 | 258 | 0.0 | 0.0 | 0.00 | 0.00 | 0.00 | 69 | 1018.5 |
| 20260830214101 | 86 | 259 | 0.0 | 0.0 | 0.00 | 0.00 | 0.00 | 69 | 1018.5 |
| 20260830213816 | 86 | 259 | 0.0 | 0.9 | 0.00 | 0.00 | 0.00 | 68 | 1018.6 |
| 20260830213053 | 86 | 253 | 0.0 | 0.9 | 0.00 | 0.00 | 0.00 | 69 | 1018.6 |
| 20260830212553 | 86 | 274 | 0.0 | 2.6 | 0.00 | 0.00 | 0.00 | 68 | 1018.6 |
| 20260830212052 | 86 | 274 | 0.9 | 2.6 | 0.00 | 0.00 | 0.00 | 67 | 1018.5 |
| 20260830211550 | 86 | 118 | 0.9 | 2.6 | 0.00 | 0.00 | 0.00 | 67 | 1018.5 |
| 20260830211048 | 85 | 221 | 0.9 | 1.7 | 0.00 | 0.00 | 0.00 | 69 | 1018.5 |
| 20260830210547 | 85 | 26 | 0.9 | 2.6 | 0.00 | 0.00 | 0.00 | 70 | 1018.5 |
| 20260830210047 | 85 | 223 | 0.9 | 2.6 | 0.00 | 0.00 | 0.00 | 68 | 1018.4 |
| 20260830205550 | 86 | 219 | 0.9 | 3.5 | 0.00 | 0.00 | 0.00 | 68 | 1018.4 |
| 20260830205046 | 87 | 240 | 0.9 | 4.3 | 0.00 | 0.00 | 0.00 | 64 | 1018.4 |
| 20260830204810 | 87 | 226 | 0.9 | 4.3 | 0.00 | 0.00 | 0.00 | 64 | 1018.3 |
| 20260830204045 | 87 | 115 | 0.9 | 2.6 | 0.00 | 0.00 | 0.00 | 65 | 1018.4 |
| 20260830203544 | 87 | 284 | 1.7 | 4.3 | 0.00 | 0.00 | 0.00 | 66 | 1018.4 |
| 20260830203314 | 87 | 147 | 1.7 | 4.3 | 0.00 | 0.00 | 0.00 | 63 | 1018.4 |
| 20260830202542 | 88 | 74 | 0.9 | 2.6 | 0.00 | 0.00 | 0.00 | 63 | 1018.5 |
| 20260830202043 | 88 | 273 | 0.9 | 5.2 | 0.00 | 0.00 | 0.00 | 65 | 1018.6 |
| 20260830201802 | 87 | 186 | 0.9 | 5.2 | 0.00 | 0.00 | 0.00 | 64 | 1018.7 |
| 20260830201042 | 87 | 266 | 0.9 | 3.5 | 0.00 | 0.00 | 0.00 | 62 | 1018.7 |
| 20260830200543 | 88 | 287 | 0.9 | 2.6 | 0.00 | 0.00 | 0.00 | 63 | 1018.7 |
| 20260830200300 | 89 | 350 | 0.9 | 5.2 | 0.00 | 0.00 | 0.00 | 60 | 1018.8 |
| 20260830195529 | 89 | 261 | 0.9 | 5.2 | 0.00 | 0.00 | 0.00 | 61 | 1018.8 |
| 20260830195024 | 88 | 277 | 1.7 | 6.1 | 0.00 | 0.00 | 0.00 | 61 | 1019.0 |
| 20260830194521 | 89 | 273 | 1.7 | 6.1 | 0.00 | 0.00 | 0.00 | 59 | 1019.0 |
| 20260830194023 | 89 | 300 | 1.7 | 6.1 | 0.00 | 0.00 | 0.00 | 59 | 1019.0 |
| 20260830193522 | 88 | 115 | 1.7 | 6.1 | 0.00 | 0.00 | 0.00 | 61 | 1019.0 |
| 20260830193019 | 89 | 265 | 1.7 | 6.1 | 0.00 | 0.00 | 0.00 | 59 | 1019.1 |
| 20260830192738 | 88 | 194 | 1.7 | 6.1 | 0.00 | 0.00 | 0.00 | 61 | 1019.1 |
| 20260830192019 | 88 | 180 | 1.7 | 6.1 | 0.00 | 0.00 | 0.00 | 61 | 1019.2 |
| 20260830191746 | 88 | 157 | 1.7 | 6.1 | 0.00 | 0.00 | 0.00 | 62 | 1019.2 |
| 20260830191241 | 89 | 231 | 1.7 | 5.2 | 0.00 | 0.00 | 0.00 | 59 | 1019.2 |
| 20260830190519 | 90 | 114 | 0.9 | 3.5 | 0.00 | 0.00 | 0.00 | 60 | 1019.3 |
| 20260830190019 | 89 | 238 | 0.9 | 3.5 | 0.00 | 0.00 | 0.00 | 62 | 1019.5 |
| 20260830185519 | 88 | 342 | 0.9 | 3.5 | 0.00 | 0.00 | 0.00 | 62 | 1019.6 |
| 20260830185018 | 88 | 30 | 0.9 | 3.5 | 0.00 | 0.00 | 0.00 | 61 | 1019.8 |
| 20260830184519 | 88 | 256 | 1.7 | 6.1 | 0.00 | 0.00 | 0.00 | 63 | 1020.0 |
| 20260830184019 | 88 | 263 | 1.7 | 6.1 | 0.00 | 0.00 | 0.00 | 63 | 1020.0 |
| 20260830183520 | 88 | 140 | 1.7 | 3.5 | 0.00 | 0.00 | 0.00 | 63 | 1020.1 |
| 20260830183020 | 89 | 207 | 0.9 | 3.5 | 0.00 | 0.00 | 0.00 | 62 | 1020.2 |
| 20260830182738 | 89 | 215 | 0.9 | 2.6 | 0.00 | 0.00 | 0.00 | 61 | 1020.3 |
| 20260830182019 | 89 | 131 | 0.9 | 4.3 | 0.00 | 0.00 | 0.00 | 63 | 1020.4 |
| 20260830181520 | 87 | 242 | 1.7 | 7.0 | 0.00 | 0.00 | 0.00 | 65 | 1020.5 |
| 20260830181019 | 87 | 291 | 1.7 | 7.0 | 0.00 | 0.00 | 0.00 | 63 | 1020.5 |
| 20260830180742 | 87 | 107 | 1.7 | 5.2 | 0.00 | 0.00 | 0.00 | 67 | 1020.7 |
| 20260830180019 | 86 | 267 | 1.7 | 7.0 | 0.00 | 0.00 | 0.00 | 68 | 1020.7 |
| 20260830175520 | 86 | 137 | 1.7 | 7.0 | 0.00 | 0.00 | 0.00 | 65 | 1020.9 |
| 20260830175020 | 86 | 113 | 0.9 | 5.2 | 0.00 | 0.00 | 0.00 | 67 | 1021.0 |
| 20260830174519 | 86 | 323 | 1.7 | 7.0 | 0.00 | 0.00 | 0.00 | 65 | 1021.1 |
| 20260830174019 | 85 | 261 | 1.7 | 7.0 | 0.00 | 0.00 | 0.00 | 69 | 1021.0 |
| 20260830173519 | 86 | 205 | 1.7 | 5.2 | 0.00 | 0.00 | 0.00 | 66 | 1021.1 |
| 20260830173019 | 85 | 254 | 1.7 | 6.1 | 0.00 | 0.00 | 0.00 | 67 | 1021.2 |
| 20260830172519 | 84 | 225 | 1.7 | 7.0 | 0.00 | 0.00 | 0.00 | 69 | 1021.3 |
| 20260830172018 | 83 | 315 | 2.6 | 7.0 | 0.00 | 0.00 | 0.00 | 70 | 1021.4 |
| 20260830171518 | 84 | 294 | 1.7 | 6.1 | 0.00 | 0.00 | 0.00 | 69 | 1021.4 |
| 20260830171021 | 83 | 207 | 1.7 | 6.1 | 0.00 | 0.00 | 0.00 | 71 | 1021.5 |
| 20260830170518 | 84 | 293 | 1.7 | 6.1 | 0.00 | 0.00 | 0.00 | 69 | 1021.6 |
| 20260830170017 | 83 | 146 | 1.7 | 7.0 | 0.00 | 0.00 | 0.00 | 73 | 1021.7 |
| 20260830165518 | 83 | 239 | 1.7 | 7.0 | 0.00 | 0.00 | 0.00 | 70 | 1021.8 |
| 20260830165018 | 83 | 161 | 1.7 | 5.2 | 0.00 | 0.00 | 0.00 | 71 | 1021.9 |
| 20260830164959 | 82 | 318 | 1.7 | 5.2 | 0.00 | 0.00 | 0.00 | 70 | 1021.9 |
| 20260830164240 | 83 | 227 | 1.7 | 6.1 | 0.00 | 0.00 | 0.00 | 71 | 1022.0 |
| 20260830163513 | 82 | 222 | 1.7 | 6.1 | 0.00 | 0.00 | 0.00 | 72 | 1022.0 |
| 20260830163013 | 82 | 20 | 1.7 | 7.8 | 0.00 | 0.00 | 0.00 | 71 | 1022.1 |
| 20260830162513 | 81 | 290 | 1.7 | 7.8 | 0.00 | 0.00 | 0.00 | 74 | 1022.2 |
| 20260830162013 | 80 | 260 | 1.7 | 7.0 | 0.00 | 0.00 | 0.00 | 77 | 1022.2 |
| 20260830161513 | 80 | 209 | 1.7 | 7.0 | 0.00 | 0.00 | 0.00 | 75 | 1022.2 |
| 20260830161012 | 81 | 263 | 1.7 | 7.8 | 0.00 | 0.00 | 0.00 | 74 | 1022.2 |
| 20260830160748 | 81 | 122 | 2.6 | 7.8 | 0.00 | 0.00 | 0.00 | 76 | 1022.2 |
| 20260830160014 | 81 | 280 | 1.7 | 7.0 | 0.00 | 0.00 | 0.00 | 75 | 1022.2 |
| 20260830155513 | 80 | 153 | 1.7 | 5.2 | 0.00 | 0.00 | 0.00 | 76 | 1022.2 |
| 20260830155007 | 80 | 171 | 1.7 | 7.8 | 0.00 | 0.00 | 0.00 | 76 | 1022.2 |
| 20260830154501 | 80 | 217 | 1.7 | 7.8 | 0.00 | 0.00 | 0.00 | 77 | 1022.2 |
| 20260830153956 | 81 | 233 | 1.7 | 5.2 | 0.00 | 0.00 | 0.00 | 76 | 1022.2 |
| 20260830153456 | 82 | 251 | 1.7 | 6.1 | 0.00 | 0.00 | 0.00 | 74 | 1022.2 |
| 20260830152956 | 81 | 355 | 1.7 | 6.1 | 0.00 | 0.00 | 0.00 | 75 | 1022.2 |
| 20260830152457 | 81 | 140 | 1.7 | 7.0 | 0.00 | 0.00 | 0.00 | 74 | 1022.2 |
| 20260830151958 | 81 | 136 | 1.7 | 7.0 | 0.00 | 0.00 | 0.00 | 79 | 1022.1 |
| 20260830151456 | 79 | 274 | 1.7 | 6.1 | 0.00 | 0.00 | 0.00 | 81 | 1022.2 |
| 20260830150954 | 78 | 279 | 1.7 | 6.1 | 0.00 | 0.00 | 0.00 | 81 | 1022.2 |
| 20260830150455 | 78 | 263 | 1.7 | 6.1 | 0.00 | 0.00 | 0.00 | 80 | 1022.2 |
| 20260830145954 | 79 | 222 | 0.9 | 6.1 | 0.00 | 0.00 | 0.00 | 80 | 1022.2 |
| 20260830145454 | 78 | 97 | 0.9 | 5.2 | 0.00 | 0.00 | 0.00 | 82 | 1022.1 |
| 20260830144954 | 77 | 138 | 1.7 | 5.2 | 0.00 | 0.00 | 0.00 | 84 | 1022.2 |
| 20260830144451 | 77 | 192 | 1.7 | 6.1 | 0.00 | 0.00 | 0.00 | 85 | 1022.2 |
| 20260830143951 | 77 | 180 | 0.9 | 6.1 | 0.00 | 0.00 | 0.00 | 85 | 1022.2 |
| 20260830143451 | 76 | 263 | 0.9 | 6.1 | 0.00 | 0.00 | 0.00 | 86 | 1022.2 |
| 20260830142951 | 76 | 210 | 0.9 | 6.1 | 0.00 | 0.00 | 0.00 | 86 | 1022.3 |
| 20260830142451 | 77 | 306 | 0.0 | 2.6 | 0.00 | 0.00 | 0.00 | 87 | 1022.3 |
| 20260830141950 | 76 | 294 | 0.9 | 4.3 | 0.00 | 0.00 | 0.00 | 88 | 1022.3 |
| 20260830141708 | 76 | 317 | 0.0 | 4.3 | 0.00 | 0.00 | 0.00 | 87 | 1022.3 |
| 20260830140947 | 76 | 12 | 0.0 | 3.5 | 0.00 | 0.00 | 0.00 | 88 | 1022.3 |
| 20260830140441 | 75 | 244 | 0.0 | 3.5 | 0.00 | 0.00 | 0.00 | 88 | 1022.3 |
| 20260830135936 | 75 | 102 | 0.0 | 5.2 | 0.00 | 0.00 | 0.00 | 89 | 1022.3 |
| 20260830135650 | 75 | 251 | 0.9 | 5.2 | 0.00 | 0.00 | 0.00 | 89 | 1022.3 |
| 20260830134923 | 75 | 248 | 0.0 | 3.5 | 0.00 | 0.00 | 0.00 | 90 | 1022.5 |
| 20260830134418 | 74 | 132 | 0.0 | 3.5 | 0.00 | 0.00 | 0.00 | 90 | 1022.5 |
| 20260830133911 | 74 | 152 | 0.9 | 3.5 | 0.00 | 0.00 | 0.00 | 91 | 1022.6 |
| 20260830133405 | 74 | 263 | 0.9 | 4.3 | 0.00 | 0.00 | 0.00 | 92 | 1022.6 |
| 20260830132859 | 74 | 142 | 0.9 | 4.3 | 0.00 | 0.00 | 0.00 | 92 | 1022.6 |
| 20260830132354 | 73 | 237 | 0.9 | 5.2 | 0.00 | 0.00 | 0.00 | 92 | 1022.6 |
| 20260830132109 | 73 | 275 | 1.7 | 6.1 | 0.00 | 0.00 | 0.00 | 93 | 1022.6 |
| 20260830131341 | 73 | 255 | 1.7 | 6.1 | 0.00 | 0.00 | 0.00 | 94 | 1022.7 |
| 20260830131053 | 73 | 263 | 0.9 | 3.5 | 0.00 | 0.00 | 0.00 | 94 | 1022.7 |
| 20260830130600 | 73 | 223 | 0.9 | 3.5 | 0.00 | 0.00 | 0.00 | 94 | 1022.8 |
| 20260830130049 | 72 | 101 | 0.9 | 3.5 | 0.00 | 0.00 | 0.00 | 94 | 1022.8 |
| 20260830125318 | 72 | 217 | 0.9 | 2.6 | 0.00 | 0.00 | 0.00 | 94 | 1022.8 |
| 20260830124811 | 72 | 284 | 0.0 | 2.6 | 0.00 | 0.00 | 0.00 | 94 | 1022.8 |
| 20260830124533 | 72 | 263 | 0.9 | 5.2 | 0.00 | 0.00 | 0.00 | 94 | 1022.8 |
| 20260830123759 | 72 | 82 | 0.9 | 5.2 | 0.00 | 0.00 | 0.00 | 94 | 1022.7 |
| 20260830123253 | 72 | 113 | 0.9 | 3.5 | 0.00 | 0.00 | 0.00 | 94 | 1022.7 |
| 20260830123007 | 72 | 163 | 0.0 | 3.5 | 0.00 | 0.00 | 0.00 | 94 | 1022.7 |
| 20260830122242 | 72 | 166 | 0.9 | 2.6 | 0.00 | 0.00 | 0.00 | 94 | 1022.7 |
| 20260830121735 | 72 | 166 | 0.9 | 2.6 | 0.00 | 0.00 | 0.00 | 94 | 1022.8 |
| 20260830121230 | 72 | 161 | 0.9 | 1.7 | 0.00 | 0.00 | 0.00 | 94 | 1022.8 |
| 20260830120945 | 72 | 242 | 0.9 | 3.5 | 0.00 | 0.00 | 0.00 | 94 | 1022.9 |
| 20260830120217 | 72 | 205 | 0.9 | 3.5 | 0.00 | 0.00 | 0.00 | 94 | 1022.9 |
| 20260830115711 | 72 | 238 | 0.9 | 3.5 | 0.00 | 0.00 | 0.00 | 95 | 1022.9 |
| 20260830115205 | 72 | 355 | 0.0 | 2.6 | 0.00 | 0.00 | 0.00 | 94 | 1022.9 |
| 20260830114700 | 72 | 167 | 0.9 | 5.2 | 0.00 | 0.00 | 0.00 | 94 | 1022.8 |
| 20260830114153 | 71 | 123 | 0.9 | 5.2 | 0.00 | 0.00 | 0.00 | 94 | 1022.8 |
| 20260830113647 | 71 | 72 | 0.0 | 2.6 | 0.00 | 0.00 | 0.00 | 94 | 1022.8 |
| 20260830113141 | 71 | 246 | 0.0 | 2.6 | 0.00 | 0.00 | 0.00 | 94 | 1022.8 |
| 20260830112635 | 71 | 215 | 0.0 | 1.7 | 0.00 | 0.00 | 0.00 | 94 | 1022.8 |
| 20260830112128 | 71 | 47 | 0.0 | 1.7 | 0.00 | 0.00 | 0.00 | 94 | 1022.9 |
| 20260830111629 | 71 | 182 | 0.0 | 0.9 | 0.00 | 0.00 | 0.00 | 94 | 1022.9 |
| 20260830111349 | 71 | 247 | 0.0 | 0.9 | 0.00 | 0.00 | 0.00 | 94 | 1023.0 |
| 20260830110628 | 71 | 184 | 0.0 | 0.9 | 0.00 | 0.00 | 0.00 | 94 | 1022.9 |
| 20260830110127 | 71 | 269 | 0.0 | 0.9 | 0.00 | 0.00 | 0.00 | 94 | 1022.9 |
| 20260830105624 | 71 | 244 | 0.0 | 1.7 | 0.00 | 0.00 | 0.00 | 94 | 1022.9 |
| 20260830105124 | 71 | 252 | 0.0 | 1.7 | 0.00 | 0.00 | 0.00 | 94 | 1022.9 |
| 20260830104620 | 71 | 282 | 0.0 | 0.9 | 0.00 | 0.00 | 0.00 | 94 | 1022.8 |
| 20260830104119 | 71 | 187 | 0.0 | 0.9 | 0.00 | 0.00 | 0.00 | 94 | 1022.8 |
| 20260830103619 | 71 | 187 | 0.0 | 0.9 | 0.00 | 0.00 | 0.00 | 94 | 1022.8 |
| 20260830103119 | 71 | 270 | 0.0 | 2.6 | 0.00 | 0.00 | 0.00 | 94 | 1022.8 |
| 20260830102622 | 71 | 270 | 0.9 | 2.6 | 0.00 | 0.00 | 0.00 | 94 | 1022.8 |
| 20260830102116 | 71 | 213 | 0.0 | 1.7 | 0.00 | 0.00 | 0.00 | 94 | 1022.8 |
| 20260830101838 | 71 | 273 | 0.0 | 1.7 | 0.00 | 0.00 | 0.00 | 94 | 1022.8 |
| 20260830101115 | 71 | 320 | 0.0 | 2.6 | 0.00 | 0.00 | 0.00 | 94 | 1022.8 |
| 20260830100614 | 71 | 294 | 0.0 | 2.6 | 0.00 | 0.00 | 0.00 | 94 | 1022.8 |
| 20260830100110 | 71 | 290 | 0.0 | 2.6 | 0.00 | 0.00 | 0.00 | 93 | 1022.8 |
| 20260830095609 | 71 | 140 | 0.0 | 3.5 | 0.00 | 0.00 | 0.00 | 93 | 1022.7 |
| 20260830095107 | 71 | 227 | 0.9 | 3.5 | 0.00 | 0.00 | 0.00 | 93 | 1022.8 |
| 20260830095047 | 71 | 251 | 0.9 | 3.5 | 0.00 | 0.00 | 0.00 | 93 | 1022.7 |
| 20260830094109 | 71 | 78 | 0.0 | 0.9 | 0.00 | 0.00 | 0.00 | 93 | 1022.5 |
| 20260830093602 | 71 | 265 | 0.0 | 1.7 | 0.00 | 0.00 | 0.00 | 93 | 1022.5 |
| 20260830093058 | 71 | 231 | 0.0 | 1.7 | 0.00 | 0.00 | 0.00 | 93 | 1022.4 |
| 20260830092558 | 71 | 236 | 0.0 | 1.7 | 0.00 | 0.00 | 0.00 | 93 | 1022.5 |
| 20260830092324 | 71 | 236 | 0.0 | 1.7 | 0.00 | 0.00 | 0.00 | 93 | 1022.5 |
| 20260830091556 | 71 | 236 | 0.0 | 1.7 | 0.00 | 0.00 | 0.00 | 93 | 1022.6 |
| 20260830091055 | 71 | 269 | 0.0 | 1.7 | 0.00 | 0.00 | 0.00 | 92 | 1022.6 |
| 20260830090815 | 71 | 240 | 0.0 | 0.0 | 0.00 | 0.00 | 0.00 | 92 | 1022.6 |
| 20260830090324 | 71 | 232 | 0.0 | 0.0 | 0.00 | 0.00 | 0.00 | 92 | 1022.6 |
| 20260830085556 | 71 | 232 | 0.0 | 0.0 | 0.00 | 0.00 | 0.00 | 92 | 1022.5 |
| 20260830085539 | 71 | 212 | 0.0 | 0.0 | 0.00 | 0.00 | 0.00 | 92 | 1022.5 |
| 20260830084553 | 71 | 212 | 0.0 | 0.0 | 0.00 | 0.00 | 0.00 | 92 | 1022.5 |
| 20260830084054 | 71 | 212 | 0.0 | 0.9 | 0.00 | 0.00 | 0.00 | 92 | 1022.5 |
| 20260830083553 | 70 | 212 | 0.0 | 0.9 | 0.00 | 0.00 | 0.00 | 92 | 1022.4 |
| 20260830083055 | 70 | 252 | 0.0 | 0.9 | 0.00 | 0.00 | 0.00 | 92 | 1022.4 |
| 20260830082551 | 70 | 246 | 0.0 | 0.0 | 0.00 | 0.00 | 0.00 | 92 | 1022.4 |
| 20260830082050 | 70 | 246 | 0.0 | 0.9 | 0.00 | 0.00 | 0.00 | 91 | 1022.4 |
| 20260830081551 | 70 | 246 | 0.0 | 0.9 | 0.00 | 0.00 | 0.00 | 91 | 1022.4 |
| 20260830081049 | 70 | 246 | 0.0 | 0.9 | 0.00 | 0.00 | 0.00 | 91 | 1022.4 |
| 20260830080551 | 70 | 246 | 0.0 | 0.9 | 0.00 | 0.00 | 0.00 | 91 | 1022.4 |
| 20260830080050 | 70 | 242 | 0.0 | 0.0 | 0.00 | 0.00 | 0.00 | 91 | 1022.5 |
| 20260830075550 | 70 | 242 | 0.0 | 0.0 | 0.00 | 0.00 | 0.00 | 91 | 1022.6 |
| 20260830075049 | 70 | 242 | 0.0 | 0.0 | 0.00 | 0.00 | 0.00 | 91 | 1022.5 |
| 20260830074811 | 70 | 242 | 0.0 | 0.0 | 0.00 | 0.00 | 0.00 | 90 | 1022.5 |
| 20260830074050 | 70 | 242 | 0.0 | 0.9 | 0.00 | 0.00 | 0.00 | 90 | 1022.6 |
| 20260830073551 | 70 | 242 | 0.0 | 0.9 | 0.00 | 0.00 | 0.00 | 90 | 1022.7 |
| 20260830073050 | 70 | 193 | 0.0 | 0.0 | 0.00 | 0.00 | 0.00 | 90 | 1022.7 |
| 20260830072552 | 70 | 193 | 0.0 | 0.0 | 0.00 | 0.00 | 0.00 | 90 | 1022.8 |
| 20260830072049 | 70 | 193 | 0.0 | 0.0 | 0.00 | 0.00 | 0.00 | 89 | 1022.7 |
| 20260830071550 | 70 | 193 | 0.0 | 0.0 | 0.00 | 0.00 | 0.00 | 89 | 1022.8 |
| 20260830071050 | 70 | 193 | 0.0 | 0.0 | 0.00 | 0.00 | 0.00 | 89 | 1022.9 |
| 20260830070818 | 70 | 193 | 0.0 | 0.0 | 0.00 | 0.00 | 0.00 | 89 | 1022.9 |
| 20260830070315 | 70 | 193 | 0.0 | 0.0 | 0.00 | 0.00 | 0.00 | 89 | 1022.8 |
| 20260830065544 | 70 | 193 | 0.0 | 0.0 | 0.00 | 0.00 | 0.00 | 89 | 1022.8 |
| 20260830065038 | 70 | 193 | 0.0 | 0.0 | 0.00 | 0.00 | 0.00 | 89 | 1022.9 |
| 20260830064532 | 70 | 193 | 0.0 | 0.0 | 0.00 | 0.00 | 0.00 | 89 | 1022.9 |